Location: Unspecified
(0.0000°N, 0.0000°E)
Time: 19:29:47
(UTC+00:00)

GALILEO 16 (26C) - Visible Passes

Search period start: 14 January 2025 00:00
Search period end: 24 January 2025 00:00
Orbit: 23217 x 23226 km, 55.2° (Epoch: 12 January)

Date Brightness Start Highest point End Pass type
(mag) Time Alt. Az. Time Alt. Az. Time Alt. Az.
15 Jan ? 09:02:04 10° NNW 19:46:59 13° E 20:50:21 10° ENE visible
16 Jan ? 19:44:55 10° SSW 23:49:35 88° E 03:44:43 10° NNE daylight
18 Jan ? 02:29:07 10° WSW 03:52:41 16° W 14:31:16 10° SSE visible
19 Jan ? 12:59:01 10° NW 22:14:19 62° E 01:23:21 10° NNE visible
20 Jan ? 23:45:39 10° SW 02:19:19 39° W 12:16:24 10° SSE visible
22 Jan ? 10:37:06 10° NNW 20:39:31 36° E 23:07:02 10° NE visible
